EW3529 Weather Reports


time (UTC)temp
C
wind
direction
speed
KPH
gust
KPH
rain 1hr
cm
rain 24hr
cm
rain mn
cm
humidity
%
barometer
mb
20260510041416 9 202 1.6 8.0 0.00 0.00 0.00 86 1011.8
20260510040917 9 202 3.2 8.0 0.00 0.00 0.00 86 1011.8
20260510040417 10 202 1.6 8.0 0.00 0.00 0.00 85 1011.9
20260510035916 10 202 3.2 12.9 0.00 0.00 0.00 86 1011.9
20260510035417 10 194 3.2 14.5 0.00 0.00 0.00 86 1011.9
20260510034916 10 166 9.7 14.5 0.00 0.00 0.00 86 1012.1
20260510034416 10 141 8.0 12.9 0.00 0.00 0.00 86 1011.8
20260510033916 10 210 3.2 4.8 0.00 0.00 0.00 85 1011.8
20260510033416 10 210 1.6 3.2 0.00 0.00 0.00 85 1011.8
20260510032916 11 210 0.0 4.8 0.00 0.00 0.00 85 1011.5
20260510032416 11 210 1.6 4.8 0.00 0.00 0.00 85 1011.5
20260510031916 11 210 3.2 4.8 0.00 0.00 0.00 84 1011.4
20260510031416 11 210 1.6 8.0 0.00 0.00 0.00 85 1011.5
20260510030916 11 210 6.4 8.0 0.00 0.00 0.00 84 1011.4
20260510030417 11 229 3.2 8.0 0.00 0.00 0.00 84 1011.4
20260510025916 11 332 3.2 8.0 0.00 0.00 0.00 84 1011.0
20260510025418 11 321 3.2 8.0 0.00 0.00 0.00 83 1011.0
20260510024917 12 359 3.2 9.7 0.00 0.00 0.00 83 1011.0
20260510024416 12 73 6.4 9.7 0.00 0.00 0.00 84 1011.1
20260510023916 12 84 8.0 8.0 0.00 0.00 0.00 84 1011.1
20260510023416 12 76 6.4 8.0 0.00 0.00 0.00 82 1010.9
20260510022918 12 54 4.8 4.8 0.00 0.00 0.00 81 1010.9
20260509141414 17 203 4.8 16.1 0.00 0.00 0.00 64 1010.6
20260509140914 17 180 9.7 19.3 0.00 0.00 0.00 67 1010.6
20260509140414 17 219 12.9 19.3 0.00 0.00 0.00 69 1010.6
20260509135914 17 212 8.0 19.3 0.00 0.00 0.00 70 1010.6
20260509135414 16 215 12.9 19.3 0.00 0.00 0.00 71 1010.9
20260509134914 16 197 8.0 12.9 0.00 0.00 0.00 73 1010.9
20260509134414 16 161 3.2 12.9 0.00 0.00 0.00 72 1011.0
20260509133914 15 195 8.0 19.3 0.00 0.00 0.00 73 1011.1
20260509133414 15 201 9.7 19.3 0.00 0.00 0.00 76 1011.1
20260509132914 15 212 8.0 14.5 0.00 0.00 0.00 75 1011.1
20260509132414 14 216 6.4 9.7 0.00 0.00 0.00 76 1011.1
20260509131915 14 220 1.6 4.8 0.00 0.00 0.00 76 1011.1
20260509131414 14 198 1.6 8.0 0.00 0.00 0.00 77 1011.1
20260509130914 13 190 3.2 9.7 0.00 0.00 0.00 77 1011.1
20260509130414 13 176 3.2 9.7 0.00 0.00 0.00 79 1011.1
20260509125914 13 167 1.6 9.7 0.00 0.00 0.00 79 1011.2
20260509125414 13 182 4.8 9.7 0.00 0.00 0.00 81 1011.1
20260509124914 12 184 3.2 9.7 0.00 0.00 0.00 80 1011.2
20260509124414 12 177 4.8 9.7 0.00 0.00 0.00 82 1011.3
20260509123914 12 191 4.8 9.7 0.00 0.00 0.00 82 1011.3
20260509123415 12 182 3.2 8.0 0.00 0.00 0.00 85 1011.3
20260509122914 12 189 3.2 9.7 0.00 0.00 0.00 87 1011.3
20260509122414 12 180 6.4 9.7 0.00 0.00 0.00 89 1011.3
20260509121914 12 207 4.8 8.0 0.00 0.00 0.00 90 1011.4
20260509121414 11 172 3.2 8.0 0.00 0.00 0.00 90 1011.4
20260509120914 11 172 3.2 8.0 0.00 0.00 0.00 90 1011.4
20260509120414 11 170 3.2 8.0 0.00 0.00 0.00 90 1011.4
20260509115913 11 161 1.6 4.8 0.00 0.00 0.00 90 1011.4
20260509115414 10 161 3.2 4.8 0.00 0.00 0.00 90 1011.3
20260509114914 10 185 1.6 4.8 0.00 0.00 0.00 90 1011.3
20260509114414 10 185 3.2 4.8 0.00 0.00 0.00 90 1011.4
20260509113914 10 185 3.2 4.8 0.00 0.00 0.00 90 1011.2
20260509113414 10 130 3.2 4.8 0.00 0.00 0.00 90 1011.3
20260509112914 10 175 1.6 4.8 0.00 0.00 0.00 90 1011.3
20260509112413 9 176 3.2 4.8 0.00 0.00 0.00 90 1011.3
20260509111915 9 175 0.0 4.8 0.00 0.00 0.00 90 1011.3
20260509111413 9 176 3.2 4.8 0.00 0.00 0.00 90 1011.3
20260509110914 9 161 1.6 4.8 0.00 0.00 0.00 90 1011.2
20260509110414 9 181 3.2 4.8 0.00 0.00 0.00 90 1011.2
20260509105914 9 157 3.2 4.8 0.00 0.00 0.00 90 1011.2
20260509105414 8 177 1.6 4.8 0.00 0.00 0.00 90 1011.0
20260509104914 8 177 3.2 8.0 0.00 0.00 0.00 90 1011.0
20260509104414 8 147 3.2 8.0 0.00 0.00 0.00 90 1011.1
20260509103913 8 145 4.8 8.0 0.00 0.00 0.00 90 1011.3
20260509103414 8 136 4.8 8.0 0.00 0.00 0.00 90 1011.3
20260509102914 8 128 4.8 4.8 0.00 0.00 0.00 90 1011.2
20260509102413 8 204 0.0 1.6 0.00 0.00 0.00 90 1011.3
20260509101914 8 204 0.0 3.2 0.00 0.00 0.00 90 1011.3
20260509101414 8 204 1.6 3.2 0.00 0.00 0.00 90 1011.3
20260509100913 8 204 0.0 4.8 0.00 0.00 0.00 90 1011.3
20260509100414 8 204 3.2 4.8 0.00 0.00 0.00 90 1011.3
20260509095914 8 179 4.8 4.8 0.00 0.00 0.00 90 1011.3
20260509095413 8 179 1.6 8.0 0.00 0.00 0.00 89 1011.3
20260509094914 8 179 1.6 8.0 0.00 0.00 0.00 89 1011.3
20260509094414 8 179 1.6 8.0 0.00 0.00 0.00 89 1011.3
20260509093913 8 179 3.2 4.8 0.00 0.00 0.00 89 1011.4
20260509093414 8 179 1.6 4.8 0.00 0.00 0.00 89 1011.4
20260509092913 8 179 0.0 1.6 0.00 0.00 0.00 89 1011.5
20260509092413 8 179 0.0 1.6 0.00 0.00 0.00 89 1011.5
20260509091914 8 179 1.6 1.6 0.00 0.00 0.00 89 1011.6
20260509091414 8 179 0.0 1.6 0.00 0.00 0.00 88 1011.7
20260509090913 8 179 0.0 1.6 0.00 0.00 0.00 88 1011.6
20260509090414 8 179 0.0 0.0 0.00 0.00 0.00 88 1011.5
20260509085913 8 179 0.0 0.0 0.00 0.00 0.00 87 1011.5
20260509085413 8 179 0.0 0.0 0.00 0.00 0.00 87 1011.4
20260509084914 8 179 0.0 0.0 0.00 0.00 0.00 88 1011.5
20260509084414 8 179 0.0 4.8 0.00 0.00 0.00 88 1011.5
20260509083913 8 179 0.0 4.8 0.00 0.00 0.00 88 1011.5
20260509083414 8 184 3.2 8.0 0.00 0.00 0.00 87 1011.6
20260509082914 8 184 3.2 8.0 0.00 0.00 0.00 87 1011.6
20260509082413 8 149 3.2 4.8 0.00 0.00 0.00 87 1011.6
20260509081913 8 149 3.2 4.8 0.00 0.00 0.00 88 1011.6
20260509081414 8 149 3.2 4.8 0.00 0.00 0.00 88 1011.6
20260509080914 8 149 3.2 4.8 0.00 0.00 0.00 88 1011.6
20260509080413 8 149 3.2 8.0 0.00 0.00 0.00 88 1011.5
20260509075913 8 176 3.2 8.0 0.00 0.00 0.00 88 1011.6
20260509075413 8 179 1.6 8.0 0.00 0.00 0.00 88 1011.6
20260509074913 8 0 0.0 0.0 0.00 0.00 0.00 87 1011.7
20260509074413 8 0 0.0 0.0 0.00 0.00 0.00 87 1011.7
20260509073914 8 0 0.0 0.0 0.00 0.00 0.00 87 1011.8
20260509073413 8 0 0.0 0.0 0.00 0.00 0.00 87 1011.9
20260509072913 8 0 0.0 0.0 0.00 0.00 0.00 87 1011.9
20260509072413 8 0 0.0 0.0 0.00 0.00 0.00 87 1012.0
20260509071914 8 0 0.0 0.0 0.00 0.00 0.00 87 1011.9
20260509071413 8 0 0.0 0.0 0.00 0.00 0.00 88 1012.1
20260509070913 8 0 0.0 4.8 0.00 0.00 0.00 87 1012.3
20260509070414 8 8 1.6 4.8 0.00 0.00 0.00 87 1012.2
20260509065913 8 175 4.8 4.8 0.00 0.00 0.00 88 1012.1
20260509065413 8 175 4.8 8.0 0.00 0.00 0.00 88 1012.1
20260509064913 8 174 3.2 9.7 0.00 0.00 0.00 88 1012.1
20260509064413 8 146 4.8 14.5 0.00 0.00 0.00 92 1012.3
20260509063913 7 182 6.4 19.3 0.00 0.00 0.00 88 1012.3
20260509063413 7 193 8.0 19.3 0.00 0.00 0.00 88 1012.6
20260509062913 7 193 6.4 14.5 0.00 0.00 0.00 88 1012.6
20260509062413 7 191 8.0 11.3 0.00 0.00 0.00 88 1012.6
20260509061912 7 185 3.2 9.7 0.00 0.00 0.00 88 1012.6
20260509061413 7 177 3.2 9.7 0.00 0.00 0.00 88 1012.5
20260509060912 7 171 6.4 9.7 0.00 0.00 0.00 88 1012.5
20260509060413 7 169 6.4 9.7 0.00 0.00 0.00 87 1012.4
20260509055913 6 184 4.8 8.0 0.00 0.00 0.00 87 1012.5
20260509055413 6 183 3.2 4.8 0.00 0.00 0.00 87 1012.6
20260509054913 6 200 3.2 4.8 0.00 0.00 0.00 87 1012.7
20260509054413 6 281 1.6 4.8 0.00 0.00 0.00 87 1012.7
20260509053913 6 281 1.6 4.8 0.00 0.00 0.00 85 1012.7
20260509053413 6 281 3.2 4.8 0.00 0.00 0.00 85 1012.8
20260509052913 6 261 4.8 8.0 0.00 0.00 0.00 85 1012.8
20260509052413 6 214 4.8 9.7 0.00 0.00 0.00 85 1012.8
20260509051913 6 214 8.0 9.7 0.00 0.00 0.00 84 1012.7
20260509051413 7 214 8.0 11.3 0.00 0.00 0.00 84 1012.7
20260509050913 7 214 9.7 11.3 0.00 0.00 0.00 83 1012.7
20260509050413 7 214 9.7 11.3 0.00 0.00 0.00 82 1012.7
20260509045913 7 210 9.7 11.3 0.00 0.00 0.00 82 1012.7
20260509045413 7 211 8.0 12.9 0.00 0.00 0.00 82 1012.6
20260509044912 7 200 9.7 12.9 0.00 0.00 0.00 81 1012.7
20260509044413 7 199 9.7 12.9 0.00 0.00 0.00 81 1012.7
20260509043913 7 202 9.7 12.9 0.00 0.00 0.00 80 1012.7
20260509043413 8 203 9.7 11.3 0.00 0.00 0.00 80 1012.7
20260509042913 8 202 8.0 11.3 0.00 0.00 0.00 80 1012.7
20260509042414 8 203 8.0 9.7 0.00 0.00 0.00 80 1012.7
20260509041912 8 202 4.8 4.8 0.00 0.00 0.00 79 1012.6